loading
|

OBJECT A, 61238

Orbit data source: Space-Track

OBJECT A, 61238 is a Chinese satellite in SSO that was launched on Tue, 24 Sep 2024 UTC via a LIJIAN-1 launch vehicle from the Jiuquan Satellite Launch Center, China (JSC). Unknown objects in Earth's orbit typically refer to objects detected orbiting the Earth but have not yet been identified or cataloged. These objects could be anything from previously untracked satellites, spent rocket stages, debris from satellite collisions, or even natural meteoroids temporarily captured by Earth's gravity.

Loading next visibility...
Next conjunction unknown
Loading greatness...
OBJECT A details
Identifier
61238, 2024-174A
Orbit
SSO
Last TLE update12 hours ago
Origin
Flag of CNZHWK/JIG (CN / PRC)
ManufacturerZHWK/HARGW
MissionOperational spacecraft
Bus & MotorZK1, Unknown motor
Mass~250 kg wet, ~250 kg dry
Launch date (UTC)
2024-09-24 (3 weeks ago)
Launch vehicle
LIJIAN-1
Launch site
Jiuquan Satellite Launch Center, China (JSC)
Object typeUnknown
Shape & HBRUnknown
Radar Cross SectionLarge (>1 m²)

Expand to show TLE details & history

TLE from 12 hours ago
0 OBJECT A
1 61238U 24174A   24288.15943266  .00010328  00000-0  52719-3 0  9999
2 61238  97.4566 293.1274 0014184 215.9414 144.0867 15.16816018  2910
Epoch: 2024-10-14T03:49Z
Definitive object data (Epoch: 2024-10-14T03:49:34.981Z)
Latitude0.00001°
Longitude-147.45893°
Altitude526.481 km
Speed7.595 km/s
True Right ascension19h 32m 30s
True Declination0° 00' 00"
Sunlit
Object was in daylight at TLE epoch
Predictive object data (real-time)
Latitude-21.3535°
Longitude30.11459°
Altitude514.098 km
Speed7.611 km/s
Apparent Right ascension04h 04m 42s
Apparent Declination-55° 21' 35"
Sunlit
Object is in daylight
Predictive observer data (real-time)
Local Sidereal Time10:21:55
Azimuth223.198° SW
Elevation-34.101°
Doppler factor1
Orbital elements
Apogee522.217 km
Perigee502.669 km
Semi-major axis6,890.58 km
Eccentricity0.0014184
Inclination97.4566°
RAAN293.1274°
Arg. of periapsis215.9414°
True anomaly144.1819°
Mean anomaly144.0867°
Eccentric anomaly144.13431°
Mean motion3.79454 °/min
BSTAR0.00052719
Period94.87 mins
No data available
No data available

OBJECT A Visibility forecast

Observer location: 39.9160978°, -105.1181434

Span
Click to sort rows by Start time (UTC) header in descending order
Start Az.
Max El. time (UTC)
Max El. Az.
Max El.
End time (UTC)
End Az.
7 mins2024-10-15 00:31:40.533Z166.954° S2024-10-15 00:34:40.533Z167.567° S42.57°2024-10-15 00:38:40.533Z348.016° N
6 mins2024-10-15 13:38:40.533Z357.535° N2024-10-15 13:41:40.533Z252.771° W37.273°2024-10-15 13:44:40.533Z207.964° SW